Meteo orario Kozinowa

Oggi, 4 Marzo, Giovedi

Tempo Temperatura Precipitazioni Vento Pressione Umidità
00:00 +2°C° 0 mm 2 m/s 707 mm Hg 76%
01:00 +2°C° 0 mm 2 m/s 706 mm Hg 77%
02:00 +2°C° 0 mm 2 m/s 706 mm Hg 78%
03:00 +2°C° 0 mm 2 m/s 705 mm Hg 78%
04:00 +1°C° 0 mm 2 m/s 705 mm Hg 78%
05:00 +2°C° 0 mm 2 m/s 705 mm Hg 78%
06:00 +2°C° 0 mm 2 m/s 704 mm Hg 77%
07:00 +2°C° 0 mm 2 m/s 704 mm Hg 76%
08:00 +3°C° 0 mm 3 m/s 704 mm Hg 70%
09:00 +5°C° 0 mm 3 m/s 704 mm Hg 63%
10:00 +8°C° 0 mm 3 m/s 704 mm Hg 56%
11:00 +9°C° 0 mm 3 m/s 704 mm Hg 57%
12:00 +8°C° 0 mm 4 m/s 704 mm Hg 58%
13:00 +10°C° 0 mm 4 m/s 703 mm Hg 59%
14:00 +8°C° 0.2 mm 4 m/s 703 mm Hg 68%
15:00 +8°C° 0.2 mm 3 m/s 702 mm Hg 77%
16:00 +5°C° 0.2 mm 3 m/s 701 mm Hg 86%
17:00 +5°C° 0.2 mm 3 m/s 701 mm Hg 87%
18:00 +5°C° 0.2 mm 2 m/s 701 mm Hg 88%
19:00 +5°C° 0.2 mm 2 m/s 700 mm Hg 89%
20:00 +5°C° 0.2 mm 2 m/s 700 mm Hg 89%
21:00 +4°C° 0.2 mm 2 m/s 700 mm Hg 90%
22:00 +4°C° 0.2 mm 2 m/s 700 mm Hg 91%
23:00 +4°C° 1 mm 2 m/s 700 mm Hg 92%

Domani, 5 Marzo, Venerdi

Tempo Temperatura Precipitazioni Vento Pressione Umidità
00:00 +4°C° 1 mm 2 m/s 700 mm Hg 93%
01:00 +5°C° 1 mm 1 m/s 700 mm Hg 94%
02:00 +3°C° 1.5 mm 2 m/s 700 mm Hg 95%
03:00 +2°C° 1.5 mm 2 m/s 699 mm Hg 96%
04:00 -1°C° 1.5 mm 2 m/s 699 mm Hg 97%
05:00 -1°C° 0.6 mm 2 m/s 700 mm Hg 96%
06:00 -2°C° 0.6 mm 2 m/s 700 mm Hg 96%
07:00 0°C° 0.6 mm 1 m/s 701 mm Hg 96%
08:00 -2°C° 0.3 mm 2 m/s 701 mm Hg 93%
09:00 -2°C° 0.3 mm 2 m/s 702 mm Hg 90%
10:00 -2°C° 0.3 mm 3 m/s 702 mm Hg 88%
11:00 -2°C° 0.2 mm 3 m/s 703 mm Hg 86%
12:00 -2°C° 0.2 mm 3 m/s 703 mm Hg 84%
13:00 -2°C° 0.2 mm 3 m/s 703 mm Hg 81%
14:00 -2°C° 0.1 mm 3 m/s 704 mm Hg 78%
15:00 -2°C° 0.1 mm 3 m/s 704 mm Hg 74%
16:00 -2°C° 0.1 mm 3 m/s 704 mm Hg 71%
17:00 -3°C° 0 mm 2 m/s 705 mm Hg 75%
18:00 -4°C° 0 mm 2 m/s 705 mm Hg 78%
19:00 -3°C° 0 mm 1 m/s 706 mm Hg 82%
20:00 -3°C° 0 mm 1 m/s 706 mm Hg 82%
21:00 -4°C° 0 mm 1 m/s 707 mm Hg 82%
22:00 -4°C° 0 mm 1 m/s 707 mm Hg 82%
23:00 -4°C° 0 mm 1 m/s 708 mm Hg 81%

Dopodomani, 6 Marzo, Sabato

Tempo Temperatura Precipitazioni Vento Pressione Umidità
00:00 -4°C° 0 mm 1 m/s 708 mm Hg 81%
01:00 -4°C° 0 mm 1 m/s 708 mm Hg 81%
02:00 -4°C° 0 mm 1 m/s 709 mm Hg 82%
03:00 -4°C° 0 mm 1 m/s 709 mm Hg 82%
04:00 -4°C° 0 mm 1 m/s 709 mm Hg 83%
05:00 -4°C° 0.1 mm 1 m/s 709 mm Hg 83%
06:00 -6°C° 0.1 mm 2 m/s 710 mm Hg 83%
07:00 -5°C° 0.1 mm 2 m/s 710 mm Hg 83%
08:00 -5°C° 0 mm 2 m/s 711 mm Hg 77%
09:00 -4°C° 0 mm 2 m/s 711 mm Hg 71%
10:00 -3°C° 0 mm 2 m/s 712 mm Hg 64%
11:00 -3°C° 0.1 mm 2 m/s 712 mm Hg 61%
12:00 -2°C° 0.1 mm 2 m/s 712 mm Hg 58%
13:00 -2°C° 0.1 mm 2 m/s 712 mm Hg 55%
14:00 -2°C° 0 mm 2 m/s 712 mm Hg 56%
15:00 -2°C° 0 mm 2 m/s 711 mm Hg 56%
16:00 -2°C° 0 mm 2 m/s 711 mm Hg 57%
17:00 -1°C° 0 mm 1 m/s 711 mm Hg 63%
18:00 -2°C° 0 mm 1 m/s 711 mm Hg 68%
19:00 -3°C° 0 mm 1 m/s 711 mm Hg 74%
20:00 -4°C° 0 mm 1 m/s 711 mm Hg 74%
21:00 -4°C° 0 mm 1 m/s 711 mm Hg 74%
22:00 -4°C° 0 mm 1 m/s 711 mm Hg 74%
23:00 -4°C° 0 mm 1 m/s 710 mm Hg 73%

7 Marzo, Domenica

Tempo Temperatura Precipitazioni Vento Pressione Umidità
00:00 -4°C° 0 mm 1 m/s 710 mm Hg 72%
01:00 -6°C° 0 mm 2 m/s 710 mm Hg 71%
02:00 -6°C° 0 mm 2 m/s 709 mm Hg 71%
03:00 -6°C° 0 mm 2 m/s 709 mm Hg 70%
04:00 -6°C° 0 mm 2 m/s 708 mm Hg 69%
05:00 -6°C° 0 mm 2 m/s 708 mm Hg 67%
06:00 -6°C° 0 mm 2 m/s 708 mm Hg 66%
07:00 -6°C° 0 mm 2 m/s 708 mm Hg 64%
08:00 -5°C° 0 mm 3 m/s 708 mm Hg 58%
09:00 -2°C° 0 mm 3 m/s 708 mm Hg 51%
10:00 -1°C° 0 mm 4 m/s 708 mm Hg 45%
11:00 -1°C° 0 mm 4 m/s 707 mm Hg 43%
12:00 0°C° 0 mm 4 m/s 707 mm Hg 42%
13:00 +1°C° 0 mm 4 m/s 706 mm Hg 40%
14:00 +1°C° 0 mm 4 m/s 706 mm Hg 43%
15:00 +1°C° 0 mm 3 m/s 705 mm Hg 45%
16:00 +1°C° 0 mm 3 m/s 705 mm Hg 48%
17:00 0°C° 0 mm 3 m/s 704 mm Hg 55%
18:00 -2°C° 0 mm 2 m/s 704 mm Hg 61%
19:00 -3°C° 0 mm 2 m/s 704 mm Hg 68%
20:00 -4°C° 0 mm 2 m/s 704 mm Hg 69%
21:00 -4°C° 0 mm 2 m/s 704 mm Hg 70%
22:00 -4°C° 0 mm 2 m/s 704 mm Hg 71%
23:00 -2°C° 0 mm 1 m/s 704 mm Hg 72%

8 Marzo, Lunedi

Tempo Temperatura Precipitazioni Vento Pressione Umidità
00:00 -2°C° 0 mm 1 m/s 703 mm Hg 72%
01:00 -2°C° 0 mm 1 m/s 703 mm Hg 73%
02:00 -2°C° 0 mm 1 m/s 703 mm Hg 74%
03:00 -2°C° 0 mm 1 m/s 703 mm Hg 76%
04:00 -4°C° 0 mm 0 m/s 702 mm Hg 77%
05:00 -3°C° 0 mm 0 m/s 703 mm Hg 78%
06:00 -2°C° 0 mm 1 m/s 703 mm Hg 78%
07:00 -2°C° 0 mm 1 m/s 703 mm Hg 79%
08:00 -1°C° 0 mm 1 m/s 703 mm Hg 76%
09:00 0°C° 0 mm 1 m/s 704 mm Hg 72%
10:00 +1°C° 0 mm 1 m/s 704 mm Hg 69%
11:00 +1°C° 0 mm 1 m/s 704 mm Hg 69%
12:00 +1°C° 0 mm 1 m/s 704 mm Hg 70%
13:00 +2°C° 0 mm 1 m/s 705 mm Hg 70%
14:00 +1°C° 0.1 mm 1 m/s 704 mm Hg 73%
15:00 -1°C° 0.1 mm 2 m/s 704 mm Hg 75%
16:00 -1°C° 0.1 mm 2 m/s 704 mm Hg 78%
17:00 0°C° 0 mm 1 m/s 704 mm Hg 83%
18:00 -1°C° 0 mm 1 m/s 705 mm Hg 89%
19:00 -2°C° 0 mm 1 m/s 705 mm Hg 94%
20:00 -2°C° 0 mm 1 m/s 705 mm Hg 93%
21:00 -2°C° 0 mm 1 m/s 706 mm Hg 93%
22:00 -2°C° 0 mm 1 m/s 706 mm Hg 92%
23:00 -2°C° 0 mm 1 m/s 706 mm Hg 90%

9 Marzo, Martedi

Tempo Temperatura Precipitazioni Vento Pressione Umidità
00:00 -3°C° 0 mm 1 m/s 706 mm Hg 89%
01:00 -3°C° 0 mm 1 m/s 706 mm Hg 87%
02:00 -3°C° 0 mm 1 m/s 706 mm Hg 86%
03:00 -3°C° 0 mm 1 m/s 706 mm Hg 85%
04:00 -3°C° 0 mm 1 m/s 705 mm Hg 84%
05:00 -3°C° 0 mm 1 m/s 706 mm Hg 83%
06:00 -3°C° 0 mm 1 m/s 706 mm Hg 82%
07:00 -3°C° 0 mm 1 m/s 706 mm Hg 81%
08:00 -2°C° 0 mm 1 m/s 706 mm Hg 75%
09:00 -1°C° 0 mm 1 m/s 706 mm Hg 69%
10:00 +1°C° 0 mm 1 m/s 707 mm Hg 63%
11:00 +1°C° 0 mm 1 m/s 707 mm Hg 62%
12:00 +2°C° 0 mm 1 m/s 707 mm Hg 60%
13:00 +2°C° 0 mm 1 m/s 707 mm Hg 59%
14:00 +2°C° 0.1 mm 1 m/s 706 mm Hg 62%
15:00 -1°C° 0.1 mm 2 m/s 706 mm Hg 64%
16:00 -1°C° 0.1 mm 2 m/s 706 mm Hg 66%
17:00 0°C° 0 mm 1 m/s 706 mm Hg 71%
18:00 -1°C° 0 mm 1 m/s 706 mm Hg 75%
19:00 -2°C° 0 mm 1 m/s 706 mm Hg 79%
20:00 -2°C° 0 mm 1 m/s 706 mm Hg 79%
21:00 -4°C° 0 mm 0 m/s 706 mm Hg 79%
22:00 -4°C° 0 mm 0 m/s 706 mm Hg 79%
23:00 -4°C° 0 mm 0 m/s 706 mm Hg 80%
Mostrare altro